CW2224 Weather Reports


time (UTC)temp
C
wind
direction
speed
KPH
gust
KPH
rain 1hr
cm
rain 24hr
cm
rain mn
cm
humidity
%
barometer
mb
20260507043346 12 273 1.6 3.2 0.00 0.00 0.00 81 1019.9
20260507041827 13 273 3.2 8.0 0.00 0.00 0.00 80 1019.8
20260507040329 13 233 3.2 9.7 0.00 0.00 0.00 80 1020.0
20260507034856 13 268 3.2 8.0 0.00 0.00 0.00 79 1019.8
20260507033336 13 259 3.2 9.7 0.00 0.00 0.00 79 1019.8
20260507031822 13 212 4.8 9.7 0.00 0.00 0.00 78 1019.6
20260507030328 13 209 6.4 16.1 0.00 0.00 0.00 78 1019.4
20260507024825 13 247 6.4 14.5 0.00 0.00 0.00 77 1019.3
20260507023323 13 254 6.4 14.5 0.00 0.00 0.00 76 1019.3
20260507021853 14 226 6.4 12.9 0.00 0.00 0.00 76 1019.2
20260507020329 13 234 3.2 8.0 0.00 0.00 0.00 76 1019.3
20260507014830 13 260 4.8 16.1 0.00 0.00 0.00 75 1019.2
20260507013332 13 220 4.8 11.3 0.00 0.00 0.00 76 1019.2
20260507011839 14 221 8.0 22.5 0.00 0.00 0.00 75 1019.3
20260507010345 14 245 3.2 11.3 0.00 0.00 0.00 75 1019.3
20260507004830 14 285 4.8 11.3 0.00 0.00 0.00 75 1019.3
20260507003357 14 215 4.8 12.9 0.00 0.00 0.00 75 1019.4
20260507001843 14 284 4.8 12.9 0.00 0.00 0.00 75 1019.4
20260507000351 14 252 6.4 14.5 0.00 0.00 0.00 74 1019.4
20260506234849 14 256 8.0 12.9 0.00 0.00 0.00 74 1019.4
20260506233324 14 247 6.4 14.5 0.00 0.00 0.00 74 1019.3
20260506231826 14 215 4.8 12.9 0.00 0.00 0.00 74 1019.5
20260506230328 13 290 9.7 19.3 0.00 0.00 0.00 74 1019.4
20260506224828 13 232 6.4 14.5 0.00 0.00 0.00 75 1019.4
20260506223328 13 231 8.0 16.1 0.00 0.00 0.00 74 1019.5
20260506221830 13 273 8.0 16.1 0.00 0.00 0.00 75 1019.6
20260506220332 13 225 6.4 12.9 0.00 0.00 0.00 76 1019.6
20260506214854 13 246 4.8 11.3 0.00 0.00 0.00 76 1019.7
20260506213340 13 276 3.2 14.5 0.00 0.00 0.00 76 1019.6
20260506211826 13 267 4.8 19.3 0.00 0.00 0.00 76 1019.6
20260506210352 13 260 4.8 12.9 0.00 0.00 0.00 77 1019.7
20260506204849 13 204 4.8 11.3 0.00 0.00 0.00 78 1019.8
20260506203334 13 270 8.0 17.7 0.00 0.00 0.00 78 1019.8
20260506201841 13 230 4.8 11.3 0.00 0.00 0.00 80 1019.8
20260506200336 13 254 4.8 12.9 0.00 0.00 0.00 80 1019.7
20260506194843 12 250 4.8 14.5 0.00 0.00 0.00 80 1019.7
20260506193327 12 256 3.2 9.7 0.00 0.00 0.00 82 1019.5
20260506191829 12 202 4.8 9.7 0.00 0.00 0.00 83 1019.4
20260506190330 12 237 3.2 9.7 0.00 0.00 0.00 84 1019.5
20260506184837 12 248 6.4 11.3 0.00 0.00 0.00 85 1019.5
20260506183344 12 277 1.6 14.5 0.00 0.00 0.00 85 1019.5
20260506181842 12 245 3.2 11.3 0.00 0.00 0.00 86 1019.2
20260506180326 12 227 4.8 8.0 0.00 0.00 0.00 87 1019.1
20260506174828 12 247 8.0 14.5 0.00 0.00 0.00 88 1019.1
20260506173326 12 213 1.6 6.4 0.00 0.00 0.00 91 1019.2
20260506171828 12 264 3.2 6.4 0.00 0.00 0.00 92 1019.4
20260506170334 12 262 1.6 8.0 0.00 0.00 0.00 92 1019.3
20260506164832 11 265 4.8 8.0 0.00 0.00 0.00 92 1019.1
20260506163333 12 284 4.8 8.0 0.00 0.00 0.00 92 1018.8
20260506161835 11 223 1.6 9.7 0.00 0.00 0.00 93 1018.4
20260506160336 11 229 4.8 9.7 0.00 0.00 0.00 92 1018.7
20260506154843 11 254 1.6 8.0 0.00 0.00 0.00 92 1018.9
20260506153327 11 244 4.8 9.7 0.00 0.00 0.00 92 1018.8
20260506151828 11 250 4.8 8.0 0.00 0.00 0.00 92 1018.5
20260506150330 11 253 4.8 11.3 0.00 0.00 0.00 91 1018.6
20260506144832 11 263 4.8 8.0 0.00 0.00 0.00 91 1018.8
20260506143337 11 249 4.8 8.0 0.00 0.00 0.00 91 1018.4
20260506141839 12 216 4.8 8.0 0.00 0.00 0.00 91 1018.1
20260506140337 12 224 1.6 4.8 0.00 0.00 0.00 90 1018.2
20260506134822 12 193 3.2 8.0 0.00 0.00 0.00 89 1018.0
20260506133324 12 219 1.6 8.0 0.00 0.00 0.00 89 1018.1
20260506131825 12 219 3.2 6.4 0.00 0.00 0.00 89 1017.9
20260506130326 12 227 1.6 6.4 0.00 0.00 0.00 89 1017.8
20260506124828 12 234 0.0 4.8 0.00 0.00 0.00 89 1017.7
20260506123329 12 234 3.2 4.8 0.00 0.00 0.00 89 1017.6
20260506121829 12 234 1.6 6.4 0.00 0.00 0.00 88 1017.5
20260506120330 12 234 4.8 8.0 0.00 0.00 0.00 87 1017.6
20260506114835 12 202 4.8 8.0 0.00 0.00 0.00 87 1017.4
20260506113340 12 246 3.2 8.0 0.00 0.00 0.00 86 1017.5
20260506111843 12 338 4.8 12.9 0.00 0.00 0.00 85 1017.4
20260506110347 12 249 4.8 12.9 0.00 0.00 0.00 85 1017.4
20260506104848 12 251 1.6 11.3 0.00 0.00 0.00 84 1017.2
20260506103329 12 241 3.2 9.7 0.00 0.00 0.00 84 1017.0
20260506101830 12 279 3.2 9.7 0.00 0.00 0.00 84 1017.0
20260506100331 12 258 3.2 12.9 0.00 0.00 0.00 83 1016.8
20260506094833 12 246 8.0 16.1 0.00 0.00 0.00 83 1016.7
20260506093335 12 242 4.8 12.9 0.00 0.00 0.00 83 1016.7
20260506091842 12 236 3.2 9.7 0.00 0.00 0.00 83 1016.5
20260506090326 12 235 1.6 9.7 0.00 0.00 0.00 83 1016.4
20260506084849 13 252 3.2 9.7 0.00 0.00 0.00 82 1016.3
20260506083329 13 261 4.8 14.5 0.00 0.00 0.00 82 1016.1
20260506081831 13 253 3.2 8.0 0.00 0.00 0.00 82 1016.2
20260506080332 13 246 4.8 9.7 0.00 0.00 0.00 82 1016.2
20260506073356 13 190 3.2 9.7 0.00 0.00 0.00 83 1016.0
20260506071822 13 216 1.6 8.0 0.00 0.00 0.00 82 1016.0
20260506070328 13 230 3.2 11.3 0.00 0.00 0.00 81 1015.8
20260506061848 14 218 3.2 12.9 0.00 0.00 0.00 80 1015.4
20260506060328 14 219 3.2 11.3 0.00 0.00 0.00 79 1015.2
20260506050333 15 210 4.8 9.7 0.00 0.00 0.00 77 1014.7
20260506044829 15 235 3.2 8.0 0.00 0.00 0.00 76 1014.6